Powrót do katalogu

MONITOR-3

AktywnyKrótkofalarstwoSSO
NORAD 57180·PAYLOAD·🇷🇺 Russia
Ta nazwa satelity nie została jeszcze potwierdzona przez oficjalne źródła.

Wystrzelony Jun 27, 2023 z Vostochny Cosmodrome

Loading…

Następne Przeloty (najbliższe 24 godziny)

TLE

ŚwieżeSource: Space-Track

Epoka: Sep 14, 2026, 14:47 UTC

1 57180U 23091Q   26257.61617786  .00008404  00000-0  29698-3 0  9993
2 57180  97.4990 321.7761 0012233 138.7673 221.4493 15.29382849177959

Śledź MONITOR-3 w czasie rzeczywistym z AllMySat

Download on the App Store